Overview Statistics Trail Chart Weather Telemetry Raw packets
 

This is the latest recevied weather packets stored in our database for station/object K6GMW. If no packets are shown the sender has not sent any weather packets the latest 10 day(s).

<< 24 25 26 27 28 29 30 >>
Time Temp. Humidity Pressure Rain* Wind** Luminosity Snow
1788463146 32.78° C 55% 1015 hPa 0 mm - 305 W/m² -
1788462842 32.78° C 55% 1015.1 hPa 0 mm - 220 W/m² -
1788462541 32.78° C 55% 1015 hPa 0 mm - 195 W/m² -
1788462235 33.33° C 54% 1015 hPa 0 mm - 266 W/m² -
1788461935 32.78° C 55% 1015 hPa 0 mm - 633 W/m² -
1788461630 32.78° C 55% 1015.1 hPa 0 mm - 235 W/m² -
1788461326 32.78° C 56% 1015.2 hPa 0 mm - 266 W/m² -
1788461023 32.78° C 56% 1015.4 hPa 0 mm - 201 W/m² -
1788460723 32.78° C 55% 1015.4 hPa 0 mm - 189 W/m² -
1788460418 32.78° C 55% 1015.5 hPa 0 mm - 209 W/m² -
1788460117 32.78° C 55% 1015.4 hPa 0 mm - 218 W/m² -
1788459816 32.78° C 54% 1015.5 hPa 0 mm - 263 W/m² -
1788459511 32.78° C 54% 1015.7 hPa 0 mm - 309 W/m² -
1788459206 32.78° C 55% 1015.8 hPa 0 mm - 288 W/m² -
1788458905 32.78° C 55% 1015.7 hPa 0 mm - 258 W/m² -
1788458600 33.89° C 53% 1015.7 hPa 0 mm - 258 W/m² -
1788458299 33.33° C 54% 1015.7 hPa 0 mm - 626 W/m² -
1788457999 33.33° C 54% 1016 hPa 0 mm - 400 W/m² -
1788457694 33.33° C 53% 1016.1 hPa 0 mm - 961 W/m² -
1788457389 33.89° C 54% 1016 hPa 0 mm - 691 W/m² -
1788457088 32.78° C 56% 1016 hPa 0 mm - 309 W/m² -
1788456784 32.22° C 56% 1016.1 hPa 0 mm - 1132 W/m² -
1788456480 33.89° C 53% 1016.3 hPa 0 mm - 187 W/m² -
1788456175 32.78° C 55% 1016.4 hPa 0 mm - 971 W/m² -
1788455869 32.22° C 57% 1016.3 hPa 0 mm - 976 W/m² -

* Rain latest hour (hover to see other rain measurements)
** Current wind speed in m/s (hover to see current wind gust speed)